RH
34 25 10 10 11 9 7 6 6 6 6 7 5 4 3 2 2 2 2 3 3 3 3 3 2 2 2 2 2 2 3 2 3 3 4 8 11 11 27 25 16 16 17 30 34
11 11 10 8 6 5 4 5 5 5 4 3 2 2 2 2 2 2 2 3 2 3 3 3 4 4 4 3 3 3 4 3 3 3 3 8 12 10 41 52 53 30 29 34 36
6 5 4 2 2 2 2 2 2 2 2 2 2 2 3 4 5 5 5 5 6 6 6 6 7 7 6 5 5 5 5 4 5 4 4 5 9 9 20 48 58 59 66 51 41
2 2 1 1 1 2 2 2 2 2 2 3 4 7 8 10 8 9 10 10 11 11 11 10 9 9 8 7 7 6 6 6 6 6 6 6 7 8 10 21 45 64 68 46 32
2 2 3 4 5 6 7 8 8 8 10 11 12 12 12 12 12 12 12 14 14 14 14 13 11 11 10 9 8 9 9 10 10 9 7 8 8 10 10 12 14 31 49 42 41
8 9 10 11 11 11 12 13 13 13 13 14 14 15 16 16 15 16 17 18 17 17 17 17 17 15 15 13 12 11 10 13 16 15 14 13 11 12 12 11 12 15 18 53 47
11 12 13 13 14 14 15 16 18 18 19 19 19 19 19 18 19 19 16 14 11 9 9 8 9 10 14 16 16 16 14 15 19 19 19 15 15 15 14 14 13 14 15 27 29
15 15 15 16 18 20 20 19 19 19 19 19 18 18 17 18 16 13 10 8 5 3 3 3 3 4 5 10 14 16 18 19 19 19 19 18 18 17 16 15 15 17 26 27 31
16 18 20 20 19 18 19 20 19 18 16 15 13 12 13 12 10 8 5 4 3 2 2 2 3 3 4 5 7 10 13 15 17 17 18 19 19 20 20 20 33 33 31 33 33
21 21 19 18 18 19 19 16 14 10 10 10 10 11 10 9 7 5 4 4 4 3 3 4 4 6 7 7 11 13 14 15 15 15 14 15 18 20 20 20 28 64 55 48 44
21 18 18 20 19 17 13 10 11 10 11 9 7 4 5 6 7 6 5 5 5 6 6 6 7 11 14 12 14 14 15 15 15 13 10 9 10 12 15 19 20 30 60 67 51
18 20 20 16 11 9 9 10 9 7 6 8 12 14 14 12 12 10 7 6 6 6 7 9 13 26 36 29 25 22 23 23 22 22 20 16 14 12 8 7 11 17 21 37 68
21 17 11 9 8 7 7 6 4 6 7 18 23 23 22 21 22 20 18 16 15 13 12 13 33 44 43 41 38 35 35 33 34 26 22 18 17 13 15 12 12 9 12 17 22
15 10 8 4 4 4 2 2 4 7 17 29 33 39 37 31 36 39 30 25 28 25 24 29 47 48 46 47 45 43 39 38 40 40 31 26 18 14 18 18 14 13 14 12 15
9 6 2 2 2 2 2 3 6 8 42 33 42 43 40 33 42 46 37 31 27 30 34 49 51 50 52 54 50 49 46 42 40 42 48 41 39 38 16 14 11 13 10 10 10
5 2 2 2 2 2 3 4 8 18 30 41 47 48 48 48 50 57 46 34 35 37 42 50 57 58 57 59 47 42 38 37 41 48 50 47 35 43 26 20 14 16 15 12 11
3 2 2 2 2 3 5 11 20 32 33 46 48 52 52 53 57 55 46 42 41 48 49 53 58 62 62 53 52 49 52 43 49 55 38 55 49 42 35 33 28 22 22 30 31
2 2 3 3 3 5 9 19 24 41 47 51 52 56 57 60 61 58 54 52 53 51 57 60 66 67 69 62 54 65 74 76 64 53 48 62 52 85 48 53 51 42 32 31 41
3 2 3 3 2 3 8 12 33 47 48 52 56 61 64 66 64 59 63 67 72 66 61 74 83 80 66 46 55 65 100 99 100 99 87 69 90 82 81 81 81 74 64 56 53
2 3 3 2 3 4 8 12 33 41 45 58 63 65 65 65 63 60 67 78 84 82 75 74 82 81 54 46 55 65 77 97 98 80 64 72 94 96 85 79 72 67 62 60 62
2 3 2 2 3 5 5 13 20 28 45 56 62 68 68 67 66 66 67 77 88 81 77 79 77 70 57 56 54 52 70 84 96 100 76 76 89 97 84 77 66 60 61 68 62
2 3 2 3 4 5 8 14 23 31 45 49 53 51 61 61 73 62 61 66 80 72 76 64 74 73 74 82 62 67 77 74 98 89 98 97 95 81 88 79 72 75 81 87 92
2 2 2 3 4 7 15 22 26 33 36 38 45 52 62 68 65 61 65 78 73 58 54 56 59 76 74 70 74 74 73 72 78 97 99 91 94 94 86 89 94 88 99 95 94
2 3 2 4 5 8 19 25 26 32 39 44 44 50 69 71 61 59 62 72 64 53 54 58 56 55 64 76 74 73 78 67 78 96 97 96 98 96 86 90 94 97 94 94 95
2 2 3 3 4 8 17 23 28 32 40 44 56 55 59 65 61 56 57 68 74 72 66 66 65 61 66 75 84 82 78 60 63 79 88 88 100 95 91 86 86 83 92 95 93
1 2 2 3 4 7 14 24 29 34 37 44 48 59 54 56 58 64 70 54 61 71 80 74 69 70 74 81 94 93 95 61 50 48 59 80 87 92 89 79 80 67 73 36 26
1 1 2 2 3 6 11 19 28 31 36 40 46 57 59 58 66 71 76 77 73 57 79 88 88 86 85 95 100 98 57 64 52 31 40 67 80 59 39 38 40 24 12 10 9
Wind_Speed
17 17 13 14 13 13 13 13 12 11 10 10 9 8 7 7 8 9 11 11 12 12 13 13 11 12 12 12 13 12 12 12 12 10 9 13 9 6 2 7 18 21 21 20 19
13 14 13 13 12 11 10 9 8 8 8 9 8 7 7 8 9 11 11 11 12 13 13 13 12 12 13 15 15 14 14 14 14 12 11 11 9 2 3 2 5 17 26 23 20
11 10 10 9 8 7 7 7 6 7 7 8 7 8 8 8 10 12 12 12 13 13 12 13 12 13 14 14 14 15 16 15 13 13 12 11 6 7 4 6 9 14 22 19 24
8 6 6 6 6 6 6 5 6 7 7 7 7 8 9 9 8 7 8 8 9 8 9 11 11 11 12 13 14 16 17 16 17 16 14 10 9 10 8 8 10 11 20 16 14
4 4 4 4 5 4 4 4 4 6 6 6 8 9 9 11 11 12 12 12 12 13 13 13 13 12 12 11 13 15 18 17 17 17 15 13 14 12 12 11 9 14 13 14 13
4 3 4 4 4 4 4 4 4 5 6 7 9 10 10 11 10 12 13 12 11 13 13 14 13 14 15 14 14 13 17 19 19 18 16 16 16 14 14 16 16 19 17 12 10
4 3 4 4 3 4 4 5 4 6 7 9 11 12 12 11 11 12 12 10 10 11 10 10 10 11 12 12 14 16 18 19 16 14 14 17 17 18 18 19 19 21 23 26 24
3 3 3 3 3 4 6 6 6 7 8 9 10 10 10 11 11 12 13 10 10 11 10 10 9 10 10 12 12 11 13 14 15 14 13 14 17 20 20 19 21 20 23 26 28
2 2 4 5 6 6 7 6 6 6 7 7 8 8 8 10 9 8 8 10 10 10 9 10 10 10 10 9 9 9 8 9 9 10 7 10 17 19 21 20 21 24 25 28 31
3 4 5 6 7 6 5 4 4 5 6 6 8 5 4 7 9 10 9 8 7 5 5 6 6 5 6 7 3 4 6 5 7 10 11 9 15 17 18 20 22 25 27 30 33
4 6 6 6 5 3 4 4 4 7 6 5 5 5 6 7 8 8 7 5 5 4 5 4 4 6 7 6 3 3 3 2 2 5 8 11 13 16 20 22 23 24 27 30 34
6 6 5 4 3 3 4 5 7 7 4 6 5 4 4 4 6 6 6 4 3 3 2 3 5 7 8 7 5 6 6 6 4 6 8 12 14 14 13 17 25 28 27 28 33
5 4 3 3 4 5 6 8 9 5 4 3 5 6 8 6 6 8 8 6 5 4 3 3 4 4 5 6 7 7 6 7 8 11 9 11 15 15 14 14 16 18 25 31 31
4 4 4 4 5 6 8 8 7 4 2 3 4 6 9 9 10 15 11 8 5 2 1 2 3 3 6 8 8 8 8 10 10 9 3 4 6 12 15 15 17 19 20 22 27
4 4 4 5 6 7 8 7 4 4 2 3 6 4 10 11 11 14 15 10 5 4 2 1 0 4 7 8 10 8 11 13 15 13 9 11 8 8 18 19 19 20 22 25 24
5 5 6 7 7 8 7 5 2 2 2 4 4 4 7 11 12 14 16 11 6 5 5 3 3 4 8 9 9 10 13 15 12 6 5 6 11 5 13 18 19 18 21 26 28
6 7 8 9 10 10 8 3 2 4 3 3 1 3 7 11 11 14 14 10 7 3 5 4 3 6 5 8 6 15 9 3 3 3 2 5 6 13 13 13 17 22 22 22 26
8 9 12 13 12 10 7 5 4 5 4 2 1 4 6 9 9 13 11 6 10 9 4 4 1 9 10 13 12 9 7 0 3 3 3 7 7 8 13 14 16 20 24 26 25
9 12 13 13 12 9 7 7 4 4 2 1 2 3 3 6 8 9 10 7 7 9 6 5 3 9 12 13 10 5 3 4 5 6 5 4 6 11 16 18 19 24 29 30 28
10 14 14 13 12 12 10 10 7 4 2 1 2 2 4 7 6 7 7 4 7 8 8 4 4 4 8 10 12 6 7 2 3 4 4 3 4 7 12 18 20 25 29 30 29
12 15 15 12 11 10 10 8 5 3 1 1 2 4 7 5 6 7 6 7 4 9 7 5 2 5 6 8 12 11 6 4 7 6 4 4 1 9 18 24 26 25 26 26 27
13 15 13 9 10 6 8 5 4 2 1 3 3 3 3 3 4 6 8 6 8 6 2 3 2 4 3 6 10 13 13 10 4 4 5 5 3 11 21 24 25 24 22 21 21
12 14 11 9 7 7 8 6 5 4 3 2 1 1 1 3 3 7 10 4 4 3 3 4 4 2 4 3 7 9 14 13 10 9 3 4 4 17 19 17 18 19 17 18 13
12 10 9 8 6 7 7 7 5 5 4 3 1 1 1 3 5 7 7 4 1 0 3 5 3 2 1 2 4 6 12 14 5 2 6 4 14 18 19 19 13 15 16 16 14
12 11 9 5 4 6 8 6 4 3 3 3 1 3 2 2 3 7 9 5 3 4 5 4 5 3 3 3 4 5 11 12 12 9 3 9 12 16 19 20 15 18 15 13 16
11 10 8 6 3 4 7 6 4 4 3 4 4 3 1 0 2 4 8 11 9 4 5 6 4 4 6 7 8 8 11 5 9 10 10 10 13 18 17 19 16 16 14 14 15
10 10 10 8 5 4 5 5 5 5 5 5 4 2 2 3 2 5 6 7 8 7 4 5 4 5 3 6 8 11 8 6 3 8 12 11 13 14 14 14 16 13 15 16 16
Wind_Direction
265 263 261 260 257 260 260 256 248 246 248 252 253 257 260 261 263 261 254 253 255 253 251 250 244 244 248 250 245 242 244 247 243 242 217 222 224 345 310 237 229 229 212 213 222
256 260 263 262 262 260 257 254 251 249 247 249 249 253 261 271 273 268 264 263 259 256 253 252 251 249 247 243 244 246 246 252 247 246 234 223 239 298 77 168 225 217 199 207 221
258 258 258 262 257 252 246 244 250 248 249 255 260 270 275 275 271 266 267 266 264 261 258 256 251 248 247 242 242 249 247 249 245 242 243 236 250 241 191 185 201 193 204 217 222
245 247 257 260 264 257 254 253 261 267 266 272 272 268 266 266 264 268 265 263 265 265 261 257 250 241 238 238 241 245 250 246 244 247 246 247 253 248 215 189 195 195 208 222 237
255 265 269 272 268 267 268 276 274 275 272 269 271 267 266 261 261 269 266 276 274 271 265 260 256 253 242 231 236 240 247 251 251 253 253 250 246 244 227 208 191 194 197 228 214
265 265 266 262 265 278 284 276 271 276 278 271 266 265 266 266 275 276 281 281 277 273 266 262 257 253 249 238 234 239 246 253 257 257 258 247 239 240 231 222 211 190 185 193 216
269 265 272 278 287 289 290 285 289 285 276 275 275 273 273 279 280 286 285 292 288 277 272 266 261 254 253 252 242 237 245 251 256 256 251 249 244 231 229 217 214 212 197 190 192
285 295 288 288 296 296 291 291 285 270 269 266 266 273 282 282 290 298 305 299 292 289 280 273 262 257 253 254 249 240 239 242 257 259 246 231 229 223 228 228 225 223 212 200 198
295 298 298 304 302 298 295 292 280 274 268 269 273 275 287 294 300 304 310 307 304 294 284 278 269 267 264 264 266 255 236 229 262 270 243 209 228 223 222 220 220 220 214 207 208
295 305 310 310 305 306 297 291 290 290 289 289 280 282 283 304 307 311 312 307 307 301 295 291 293 293 295 284 252 256 257 253 268 271 277 251 238 237 231 226 221 217 217 212 210
306 313 319 314 312 311 301 300 305 313 306 292 306 319 308 307 313 312 305 297 309 310 332 357 9 50 42 46 38 353 325 343 312 291 285 275 263 258 253 250 238 224 220 220 217
321 330 336 326 321 311 291 296 302 303 335 327 334 359 4 330 323 316 320 298 297 286 277 316 30 46 15 2 343 321 320 324 321 306 305 291 282 276 263 258 254 249 241 228 223
334 346 346 332 325 305 301 300 311 318 318 66 38 33 13 345 357 350 351 341 325 308 300 268 101 41 346 343 330 326 327 333 323 317 305 285 280 266 266 272 273 265 256 249 242
346 355 345 327 323 317 306 304 298 306 8 36 12 34 17 5 4 11 4 351 346 9 44 68 82 321 327 332 336 330 322 321 317 322 278 232 289 268 260 260 269 274 274 267 255
358 356 349 345 330 319 309 295 294 336 58 57 51 29 9 14 5 1 12 17 45 45 8 101 97 315 329 348 334 309 310 300 301 292 274 257 239 245 257 264 266 270 278 280 273
9 360 358 345 334 324 317 304 297 314 79 84 62 320 337 359 4 13 2 13 41 47 60 63 358 344 338 329 331 330 320 297 282 259 237 210 212 270 253 263 272 276 280 283 285
20 9 356 345 337 337 332 312 298 79 145 106 356 316 327 347 353 2 8 15 41 30 18 6 329 340 345 350 318 337 344 285 227 205 265 148 220 256 258 260 271 278 279 282 284
22 8 359 348 347 338 346 356 79 105 106 121 294 281 317 341 344 352 4 10 27 30 23 11 328 358 347 351 335 345 0 340 293 297 312 264 244 245 261 266 278 279 283 286 287
17 12 6 5 360 13 32 61 80 129 152 214 267 285 323 338 330 346 4 16 2 9 14 350 336 343 354 351 355 326 4 264 282 271 272 223 253 262 261 268 281 289 288 284 288
16 15 15 19 42 50 63 83 110 127 118 62 236 321 310 323 334 347 4 342 335 345 348 325 315 341 356 6 3 347 304 332 251 281 269 217 244 262 279 285 286 289 288 288 280
24 20 26 48 63 64 62 89 97 103 95 310 267 274 301 320 337 349 346 335 315 319 321 319 328 330 344 8 21 25 1 302 268 255 282 297 224 309 316 314 312 301 299 286 266
31 28 33 59 68 56 56 55 38 40 332 313 297 294 300 336 339 2 341 322 327 345 36 12 324 335 343 349 11 13 12 357 278 295 306 280 275 323 327 322 310 303 299 293 275
36 38 48 64 65 44 49 52 48 28 28 8 322 8 355 358 343 356 345 340 353 36 35 11 359 358 345 23 7 0 8 350 306 260 252 288 315 344 331 325 318 308 303 295 315
40 38 54 61 61 38 43 60 51 50 55 52 45 352 317 355 20 359 7 17 14 77 358 344 341 346 252 307 360 14 6 12 9 297 305 297 325 342 333 334 333 340 339 342 359
41 42 55 71 68 39 38 47 36 29 33 13 291 343 284 325 21 38 31 15 315 273 284 298 290 287 318 320 338 4 29 29 27 28 18 331 327 337 333 339 356 356 345 1 9
44 42 51 61 47 26 28 41 34 10 341 322 304 286 236 246 67 11 21 26 18 309 269 285 271 273 278 284 296 302 282 331 9 16 14 349 343 348 347 351 359 355 357 11 9
51 50 43 51 22 353 23 19 22 17 348 321 301 265 213 195 264 323 341 350 351 12 298 285 296 292 261 302 288 275 228 232 359 3 358 346 343 348 349 356 2 358 0 11 14